sat.trackr.live / text

‹ back to catalog

STARLINK-31325

NORAD 59165 · 2024-044P

PAYLOAD ACTIVE UNKNOWN

§ Identity

Operator
Country
US
Launch date
2024-03-04
Launch site
AFETR
Launch vehicle
Mass (kg)
RCS (m²)

Purposes: comms

External: N2YO · Heavens-Above · Gunter

§ Orbital elements

Epoch: 2026-09-19T22:20:49.757280Z

Period
94.27 min
Inclination
43.0013°
Eccentricity
0.0001413
Mean motion
15.27576209 rev/d
Perigee alt
482.1 km
Apogee alt
484.0 km
Semi-major
6,861.2 km
B*
1.7721e-5
RAAN
89.9357°
Arg perigee
267.1781°
Mean anomaly
92.8909°
Rev number
14,327

§ Raw data

STARLINK-313251 59165U 24044P   26262.93113145  .00000225  00000+0  17721-4 0  99952 59165  43.0013  89.9357 0001413 267.1781  92.8909 15.27576209143279

JSON: /api/v1/satellites/59165 · /tle

For live sub-satellite position, see the globe view (requires WebGL).

§ Visibility from observer

Set your observer location to see the next 7 days of passes ≥ 10°. The values pass through the URL so the page stays shareable.

No JS? Fill the form by hand. The geolocation button needs JavaScript.